This is the latest recevied weather packets stored in our database for station/object KK7KHO. If no packets are shown the sender has not sent any weather packets the latest 10 day(s).
| Time | Temp. | Humidity | Pressure | Rain* | Wind** | Luminosity | Snow |
|---|---|---|---|---|---|---|---|
| 1777852917 | 25.56° C | 45% | 1009.5 hPa | 0 mm | - | 359 W/m² | - |
| 1777852615 | 25.56° C | 45% | 1009.6 hPa | 0 mm | - | 372 W/m² | - |
| 1777852312 | 25.56° C | 45% | 1009.6 hPa | 0 mm | - | 383 W/m² | - |
| 1777852010 | 25° C | 47% | 1009.6 hPa | 0 mm | - | 395 W/m² | - |
| 1777851708 | 25.56° C | 45% | 1009.8 hPa | 0 mm | - | 408 W/m² | - |
| 1777851404 | 25.56° C | 46% | 1009.6 hPa | 0 mm | - | 417 W/m² | - |
| 1777851100 | 25.56° C | 47% | 1009.7 hPa | 0 mm | - | 425 W/m² | - |
| 1777850797 | 25.56° C | 47% | 1009.7 hPa | 0 mm | - | 435 W/m² | - |
| 1777850494 | 25.56° C | 47% | 1009.8 hPa | 0 mm | - | 447 W/m² | - |
| 1777850192 | 25.56° C | 46% | 1009.9 hPa | 0 mm | - | 457 W/m² | - |
| 1777849888 | 25.56° C | 47% | 1009.8 hPa | 0 mm | - | 467 W/m² | - |
| 1777849585 | 25.56° C | 47% | 1009.9 hPa | 0 mm | - | 475 W/m² | - |
| 1777849283 | 25.56° C | 47% | 1010 hPa | 0 mm | - | 483 W/m² | - |
| 1777848980 | 25.56° C | 46% | 1010 hPa | 0 mm | - | 498 W/m² | - |
| 1777848680 | 25.56° C | 48% | 1010.2 hPa | 0 mm | - | 508 W/m² | - |
| 1777848377 | 26.11° C | 48% | 1010.2 hPa | 0 mm | - | 463 W/m² | - |
| 1777848075 | 26.11° C | 46% | 1010.3 hPa | 0 mm | - | 528 W/m² | - |
| 1777847773 | 26.11° C | 47% | 1010.5 hPa | 0 mm | - | 518 W/m² | - |
| 1777847468 | 25.56° C | 47% | 1010.4 hPa | 0 mm | - | 528 W/m² | - |
| 1777847166 | 25.56° C | 48% | 1010.5 hPa | 0 mm | - | 535 W/m² | - |
| 1777846864 | 25.56° C | 48% | 1010.7 hPa | 0 mm | - | 547 W/m² | - |
| 1777846562 | 26.11° C | 47% | 1010.7 hPa | 0 mm | - | 555 W/m² | - |
| 1777846259 | 26.11° C | 49% | 1010.7 hPa | 0 mm | - | 574 W/m² | - |
| 1777845955 | 25.56° C | 48% | 1010.9 hPa | 0 mm | - | 583 W/m² | - |
| 1777845653 | 24.44° C | 50% | 1010.8 hPa | 0 mm | - | 588 W/m² | - |
* Rain latest hour (hover to see other rain measurements)
** Current wind speed in m/s (hover to see current wind gust speed)